Regional Weather Roundup
Issued by NWS

Home | Current Version | Previous Version | Graphics & Text | Print | Product List | Glossary On
Versions: 1 2 3 4 5 6 7 8 9 10 11 12 13 14 15 16 17 18 19 20 21 22 23 24 25 26 27 28 29 30 31 32 33 34 35 36 37 38 39 40 41 42 43 44 45 46 47 48 49 50
000
ASUS43 KFSD 281802
RWRSD

WEATHER ROUNDUP FOR SOUTH DAKOTA
NATIONAL WEATHER SERVICE SIOUX FALLS SD
100 PM CDT THU AUG 28 2014

NOTE: "FAIR" INDICATES FEW OR NO CLOUDS BELOW 12,000 FEET WITH NO
SIGNIFICANT WEATHER AND/OR OBSTRUCTIONS TO VISIBILITY.


SDZ001>005-009-010-012>017-281900-
NORTHWEST AND NORTH CENTRAL SOUTH DAKOTA

CITY           SKY/WX    TMP DP  RH WIND       PRES   REMARKS
BUFFALO          N/A     81  58  45 S5        29.90F
FAITH            N/A     70  63  78 N3        29.96F
MOBRIDGE       LGT RAIN  68  67  96 CALM      29.91F
$$

SDZ012>016-024>037-041>051-057-063-072>074-281900-
SOUTHWEST AND SOUTH CENTRAL SOUTH DAKOTA

CITY           SKY/WX    TMP DP  RH WIND       PRES   REMARKS
RAPID CTY ARPT CLOUDY    73  59  61 N5        30.00F
PIERRE         CLOUDY    70  68  93 N5        29.89F
CUSTER         CLOUDY    67  48  50 NE3       30.12F
ELLSWORTH AFB  CLOUDY    72  59  62 VRB6      30.00F
PHILIP         PTSUNNY   74  64  71 NW10      29.93F
PINE RIDGE     CLOUDY    72  63  73 N9        30.00F
WINNER         MOCLDY    74  66  76 CALM      29.89F
$$

SDZ004>011-016>023-039-040-281900-
NORTHEAST SOUTH DAKOTA

CITY           SKY/WX    TMP DP  RH WIND       PRES   REMARKS
ABERDEEN       CLOUDY    69  67  93 E9        29.92F
WATERTOWN      LGT RAIN  65  64  97 SE6       29.95F
SISSETON         N/A     66  65  96 SE6       29.95F
$$

SDZ017-020-022-023-036>040-048>070-281900-
SOUTHEAST SOUTH DAKOTA

CITY           SKY/WX    TMP DP  RH WIND       PRES   REMARKS
SIOUX FALLS    CLOUDY    71  67  87 SE8       29.92F
HURON          CLOUDY    70  67  90 SE9       29.89F
CHAMBERLAIN    CLOUDY    73  69  87 SE7       29.87F
MITCHELL       CLOUDY    71  68  90 MISG      29.89F
YANKTON        CLOUDY    73  70  88 E7        29.89F
$$

ABBREVIATIONS USED IN REMARKS
   TC - TEMPERATURE IN CELSIUS
  WCI - WIND CHILL INDEX
   HX - HEAT INDEX
  VSB - VISIBILITY




USA.gov is the U.S. government's official web portal to all federal, state and local government web resources and services.